Regional Weather Roundup
Issued by NWS

Home | Current Version | Previous Version | Text Only | Print | Product List | Glossary On
Versions: 1 2 3 4 5 6 7 8 9 10 11 12 13 14 15 16 17 18 19 20 21 22 23 24 25 26 27 28 29 30 31 32 33 34 35 36 37 38 39 40 41 42 43 44 45 46 47 48 49 50
000
ASUS45 KREV 230310
RWRNV
NEVADA REGIONAL WEATHER ROUNDUP
NATIONAL WEATHER SERVICE RENO NV
800 PM PDT MON SEP 22 2014

NOTE: "FAIR" INDICATES FEW OR NO CLOUDS BELOW 12,000 FEET WITH NO
SIGNIFICANT WEATHER AND/OR OBSTRUCTIONS TO VISIBILITY.

NVZ001-003-004-230400-
WESTERN NEVADA

CITY           SKY/WX    TMP DP  RH WIND       PRES   REMARKS
RENO           MOCLDY    75  42  30 W20       30.07R SMOKE
CARSON CITY    FAIR      72  41  33 W7        30.10R HAZE
MINDEN         FAIR      70  45  40 W7        30.12R HAZE
SLIDE MTN        N/A     50  37  62 W17         N/A
FALLON         PTCLDY    72  38  29 E5        30.02R
LOVELOCK       CLEAR     68  40  35 E5        30.02S
HAWTHORNE      CLEAR     75  37  25 CALM      30.04R
$$

NVZ002-CAZ072-073-230400-
NORTHERN AND CENTRAL SIERRA

CITY           SKY/WX    TMP DP  RH WIND       PRES   REMARKS
S. LAKE TAHOE  PTCLDY    64  42  44 S6        30.23R
TRUCKEE        CLOUDY    63  41  45 CALM      30.22R
SQUAW VLY 8000 NOT AVBL
SUSANVILLE     CLEAR     73  37  27 W15       30.07R
BLUE CANYON    CLEAR     63  44  50 CALM      30.20R HAZE
MAMMOTH LAKES  FAIR      61  36  39 CALM      30.26R
BRIDGEPORT     FAIR      64  41  42 CALM      30.22R
$$

NVZ030-031-036-230400-
NORTHERN NEVADA

CITY           SKY/WX    TMP DP  RH WIND       PRES   REMARKS
ELKO           CLEAR     63  42  46 W3        30.12R
WINNEMUCCA     CLEAR     67  44  43 SE9       30.06R
WENDOVER       MOCLDY    68  54  60 W5        30.10S
$$

NVZ035-037-230400-
CENTRAL NEVADA

CITY           SKY/WX    TMP DP  RH WIND       PRES   REMARKS
ELY            CLEAR     59  45  59 S12       30.22R
EUREKA           N/A     63  52  67 S6        30.19R
$$

NVZ013-014-230400-
SOUTH CENTRAL NEVADA

CITY           SKY/WX    TMP DP  RH WIND       PRES   REMARKS
TONOPAH        CLEAR     68  43  40 W5        30.15R
$$

NVZ017-020-022-230400-
SOUTHERN NEVADA

CITY           SKY/WX    TMP DP  RH WIND       PRES   REMARKS
LAS VEGAS      CLEAR     90  38  16 S6        29.90R
N. LAS VEGAS   CLEAR     87  38  17 E7        29.93R
NELLIS AFB     CLEAR     85  45  24 N6        29.92R
HENDERSON      CLEAR     88  39  17 SE12      29.97R
MERCURY        CLEAR     77  40  26 NE3       30.01R
$$


USA.gov is the U.S. government's official web portal to all federal, state and local government web resources and services.